Tracking 35275 objects as of 9-Sep-2026
HD Live streaming from Space Station
objects crossing your sky now

LEMUR-2-DAYWZAGOODDAY


LEMUR-2-DAYWZAGOODDAY is no longer on orbit
LEMUR-2-DAYWZAGOODDAY is classified as:


NORAD ID: 46501
Int'l Code: 2020-068R
Launch date: September 28, 2020
Source: United States (US)
Launch site: PLESETSK MISSILE AND SPACE COMPLEX (PKMTR)
Decay date: 2024-12-17
Your satellite tracking list
Your tracking list is empty




NASA's NSSDC Master Catalog

Two Line Element Set (TLE):
1 46501U 20068R   24345.94872576  .08004996  28522-5  16106-2 0  9994
2 46501  97.7613 333.0309 0000939 170.9447 189.1864 16.31464609232582
Source of the keplerian elements: AFSPC